Time,TemperatureF,DewpointF,PressureIn,WindDirection,WindDirectionDegrees,WindSpeedMPH,WindSpeedGustMPH,Humidity,HourlyPrecipIn,Conditions,Clouds,dailyrainin,SoftwareType,DateUTC
2013-05-08 00:01:00,70.9,52.4,29.79,SSE,158,2.2,6.3,52,0.00,,,0.00,WUHU216HW,2013-05-08 05:01:00,
2013-05-08 00:06:00,70.7,52.2,29.79,SSE,158,2.0,5.4,52,0.00,,,0.00,WUHU216HW,2013-05-08 05:06:00,
2013-05-08 00:11:00,70.7,52.8,29.80,ESE,113,4.0,4.5,53,0.00,,,0.00,WUHU216HW,2013-05-08 05:11:00,
2013-05-08 00:16:00,70.6,53.1,29.80,SSW,203,5.4,6.3,54,0.00,,,0.00,WUHU216HW,2013-05-08 05:16:00,
2013-05-08 00:21:00,70.4,52.9,29.79,South,180,4.7,6.3,54,0.00,,,0.00,WUHU216HW,2013-05-08 05:21:00,
2013-05-08 00:26:00,70.2,53.3,29.79,SSE,158,4.7,7.6,55,0.00,,,0.00,WUHU216HW,2013-05-08 05:26:00,
2013-05-08 00:32:00,70.0,53.1,29.79,South,180,6.3,8.3,55,0.00,,,0.00,WUHU216HW,2013-05-08 05:32:00,
2013-05-08 00:37:00,70.0,53.1,29.79,ESE,113,2.5,8.3,55,0.00,,,0.00,WUHU216HW,2013-05-08 05:37:00,
2013-05-08 00:42:00,69.8,53.5,29.79,SE,135,4.9,7.6,56,0.00,,,0.00,WUHU216HW,2013-05-08 05:42:00,
2013-05-08 00:47:00,69.7,53.3,29.80,SE,135,3.1,6.5,56,0.00,,,0.00,WUHU216HW,2013-05-08 05:47:00,
2013-05-08 00:52:00,69.7,53.7,29.80,East,90,4.5,4.9,57,0.00,,,0.00,WUHU216HW,2013-05-08 05:52:00,
2013-05-08 00:57:00,69.5,54.1,29.80,SSE,158,3.4,4.7,58,0.00,,,0.00,WUHU216HW,2013-05-08 05:57:00,
2013-05-08 01:02:00,69.3,54.4,29.79,SSE,158,4.7,7.4,59,0.00,,,0.00,WUHU216HW,2013-05-08 06:02:00,
2013-05-08 01:07:00,69.3,54.4,29.79,SSE,158,5.6,7.6,59,0.00,,,0.00,WUHU216HW,2013-05-08 06:07:00,
2013-05-08 01:12:00,69.1,54.7,29.79,South,180,4.9,7.6,60,0.00,,,0.00,WUHU216HW,2013-05-08 06:12:00,
2013-05-08 01:17:00,68.9,55.0,29.78,South,180,9.2,9.2,61,0.00,,,0.00,WUHU216HW,2013-05-08 06:17:00,
2013-05-08 01:22:00,68.8,55.2,29.78,SE,135,3.4,9.2,62,0.00,,,0.00,WUHU216HW,2013-05-08 06:22:00,
2013-05-08 01:27:00,68.6,55.0,29.79,SSE,158,5.4,6.3,62,0.00,,,0.00,WUHU216HW,2013-05-08 06:27:00,
2013-05-08 01:32:00,68.4,55.3,29.79,South,180,7.4,7.4,63,0.00,,,0.00,WUHU216HW,2013-05-08 06:32:00,
2013-05-08 01:37:00,68.2,55.5,29.79,SSW,203,7.6,8.1,64,0.00,,,0.00,WUHU216HW,2013-05-08 06:37:00,
2013-05-08 01:42:00,68.2,55.5,29.79,South,180,7.2,10.5,64,0.00,,,0.00,WUHU216HW,2013-05-08 06:42:00,
2013-05-08 01:47:00,68.0,55.8,29.78,SSE,158,4.0,10.5,65,0.00,,,0.00,WUHU216HW,2013-05-08 06:47:00,
2013-05-08 01:52:00,67.9,55.6,29.79,SSW,203,3.1,7.6,65,0.00,,,0.00,WUHU216HW,2013-05-08 06:52:00,
2013-05-08 01:57:00,67.5,55.7,29.78,SE,135,2.9,4.7,66,0.00,,,0.00,WUHU216HW,2013-05-08 06:57:00,
2013-05-08 02:02:00,67.3,55.5,29.79,East,90,2.9,3.4,66,0.00,,,0.00,WUHU216HW,2013-05-08 07:02:00,
2013-05-08 02:07:00,67.1,55.8,29.79,South,180,6.5,6.5,67,0.00,,,0.00,WUHU216HW,2013-05-08 07:07:00,
2013-05-08 02:12:00,67.0,56.1,29.79,SSE,158,1.3,6.5,68,0.00,,,0.00,WUHU216HW,2013-05-08 07:12:00,
2013-05-08 02:17:00,66.6,55.7,29.78,SSE,158,1.6,5.8,68,0.00,,,0.00,WUHU216HW,2013-05-08 07:17:00,
2013-05-08 02:22:00,66.4,55.9,29.78,South,180,3.1,3.4,69,0.00,,,0.00,WUHU216HW,2013-05-08 07:22:00,
2013-05-08 02:27:00,66.2,56.2,29.78,South,180,6.9,6.9,70,0.00,,,0.00,WUHU216HW,2013-05-08 07:27:00,
2013-05-08 02:32:00,65.9,56.3,29.77,South,180,3.8,6.9,71,0.00,,,0.00,WUHU216HW,2013-05-08 07:32:00,
2013-05-08 02:37:00,65.9,56.6,29.77,ESE,113,1.8,4.7,72,0.00,,,0.00,WUHU216HW,2013-05-08 07:37:00,
2013-05-08 02:42:00,65.5,56.6,29.77,SE,135,2.5,4.7,73,0.00,,,0.00,WUHU216HW,2013-05-08 07:42:00,
2013-05-08 02:47:00,65.2,56.7,29.77,SE,135,1.3,3.1,74,0.00,,,0.00,WUHU216HW,2013-05-08 07:47:00,
2013-05-08 02:52:00,65.0,56.2,29.77,SSE,158,2.0,3.8,73,0.00,,,0.00,WUHU216HW,2013-05-08 07:52:00,
2013-05-08 02:57:00,64.8,56.4,29.77,SE,135,0.0,3.8,74,0.00,,,0.00,WUHU216HW,2013-05-08 07:57:00,
2013-05-08 03:02:00,64.4,56.0,29.77,SE,135,2.7,2.7,74,0.00,,,0.00,WUHU216HW,2013-05-08 08:02:00,
2013-05-08 03:07:00,64.3,55.8,29.77,SSE,158,1.8,3.6,74,0.00,,,0.00,WUHU216HW,2013-05-08 08:07:00,
2013-05-08 03:12:00,64.1,56.0,29.77,SSE,158,4.9,4.9,75,0.00,,,0.00,WUHU216HW,2013-05-08 08:12:00,
2013-05-08 03:17:00,63.9,55.8,29.77,SSE,158,2.7,4.9,75,0.00,,,0.00,WUHU216HW,2013-05-08 08:17:00,
2013-05-08 03:22:00,63.7,55.6,29.77,SSE,158,2.2,3.1,75,0.00,,,0.00,WUHU216HW,2013-05-08 08:22:00,
2013-05-08 03:27:00,63.5,55.8,29.77,SE,135,0.7,3.1,76,0.00,,,0.00,WUHU216HW,2013-05-08 08:27:00,
2013-05-08 03:32:00,63.4,55.6,29.77,SSE,158,1.1,4.0,76,0.00,,,0.00,WUHU216HW,2013-05-08 08:32:00,
2013-05-08 03:37:00,63.2,55.4,29.77,South,180,2.5,4.0,76,0.00,,,0.00,WUHU216HW,2013-05-08 08:37:00,
2013-05-08 03:42:00,63.0,55.3,29.76,SE,135,3.8,3.8,76,0.00,,,0.00,WUHU216HW,2013-05-08 08:42:00,
2013-05-08 03:47:00,62.8,55.1,29.76,SE,135,3.4,3.8,76,0.00,,,0.00,WUHU216HW,2013-05-08 08:47:00,
2013-05-08 03:52:00,62.6,55.6,29.76,East,90,3.4,4.5,78,0.00,,,0.00,WUHU216HW,2013-05-08 08:52:00,
2013-05-08 03:57:00,62.6,55.3,29.76,South,180,1.6,4.5,77,0.00,,,0.00,WUHU216HW,2013-05-08 08:57:00,
2013-05-08 04:02:00,62.3,54.9,29.76,SE,135,1.8,3.4,77,0.00,,,0.00,WUHU216HW,2013-05-08 09:02:00,
2013-05-08 04:07:00,62.3,55.6,29.76,SE,135,0.9,3.4,79,0.00,,,0.00,WUHU216HW,2013-05-08 09:07:00,
2013-05-08 04:12:00,62.1,55.5,29.76,South,180,1.1,2.7,79,0.00,,,0.00,WUHU216HW,2013-05-08 09:12:00,
2013-05-08 04:17:00,62.1,55.5,29.76,SSE,158,4.0,4.0,79,0.00,,,0.00,WUHU216HW,2013-05-08 09:17:00,
2013-05-08 04:22:00,61.9,55.7,29.76,SSW,203,0.9,4.0,80,0.00,,,0.00,WUHU216HW,2013-05-08 09:22:00,
2013-05-08 04:27:00,61.9,56.1,29.76,South,180,1.1,4.0,81,0.00,,,0.00,WUHU216HW,2013-05-08 09:27:00,
2013-05-08 04:32:00,61.9,56.1,29.76,SE,135,2.2,4.7,81,0.00,,,0.00,WUHU216HW,2013-05-08 09:32:00,
2013-05-08 04:37:00,61.7,56.2,29.77,SW,225,2.7,4.7,82,0.00,,,0.00,WUHU216HW,2013-05-08 09:37:00,
2013-05-08 04:42:00,61.6,56.3,29.76,South,180,2.7,4.7,83,0.00,,,0.00,WUHU216HW,2013-05-08 09:42:00,
2013-05-08 04:47:00,61.6,56.1,29.77,South,180,2.0,4.7,82,0.00,,,0.00,WUHU216HW,2013-05-08 09:47:00,
2013-05-08 04:52:00,61.4,55.9,29.77,SSW,203,1.8,4.3,82,0.00,,,0.00,WUHU216HW,2013-05-08 09:52:00,
2013-05-08 04:57:00,61.2,55.7,29.77,SSE,158,1.3,3.4,82,0.00,,,0.00,WUHU216HW,2013-05-08 09:57:00,
2013-05-08 05:02:00,61.2,56.1,29.77,SE,135,0.9,3.4,83,0.00,,,0.00,WUHU216HW,2013-05-08 10:02:00,
2013-05-08 05:07:00,60.8,55.4,29.76,South,180,1.1,2.9,82,0.00,,,0.00,WUHU216HW,2013-05-08 10:07:00,
2013-05-08 05:12:00,60.8,55.7,29.76,South,180,2.5,3.1,83,0.00,,,0.00,WUHU216HW,2013-05-08 10:12:00,
2013-05-08 05:17:00,60.7,55.2,29.76,WSW,248,1.8,3.1,82,0.00,,,0.00,WUHU216HW,2013-05-08 10:17:00,
2013-05-08 05:22:00,60.5,55.0,29.76,SW,225,2.0,5.1,82,0.00,,,0.00,WUHU216HW,2013-05-08 10:22:00,
2013-05-08 05:27:00,60.5,55.0,29.76,SW,225,0.0,5.1,82,0.00,,,0.00,WUHU216HW,2013-05-08 10:27:00,
2013-05-08 05:32:00,60.1,54.6,29.77,WSW,248,0.9,1.8,82,0.00,,,0.00,WUHU216HW,2013-05-08 10:32:00,
2013-05-08 05:37:00,60.1,54.6,29.77,WSW,248,0.7,1.8,82,0.00,,,0.00,WUHU216HW,2013-05-08 10:37:00,
2013-05-08 05:42:00,60.5,55.4,29.77,South,180,3.4,3.4,83,0.00,,,0.00,WUHU216HW,2013-05-08 10:42:00,
2013-05-08 05:47:00,61.2,56.7,29.78,WSW,248,3.8,4.3,85,0.00,,,0.00,WUHU216HW,2013-05-08 10:47:00,
2013-05-08 05:52:00,61.6,56.7,29.78,SW,225,2.2,4.3,84,0.00,,,0.00,WUHU216HW,2013-05-08 10:52:00,
2013-05-08 05:57:00,61.7,57.2,29.78,SW,225,2.5,5.4,85,0.00,,,0.00,WUHU216HW,2013-05-08 10:57:00,
2013-05-08 06:02:00,62.1,57.3,29.78,SW,225,3.8,5.4,84,0.00,,,0.00,WUHU216HW,2013-05-08 11:02:00,
2013-05-08 06:07:00,62.3,57.1,29.78,WSW,248,4.7,5.4,83,0.00,,,0.00,WUHU216HW,2013-05-08 11:07:00,
2013-05-08 06:12:00,62.3,57.1,29.78,SW,225,2.9,4.7,83,0.00,,,0.00,WUHU216HW,2013-05-08 11:12:00,
2013-05-08 06:17:00,62.5,57.3,29.78,SSW,203,0.4,4.3,83,0.00,,,0.00,WUHU216HW,2013-05-08 11:17:00,
2013-05-08 06:22:00,62.6,57.3,29.79,SSW,203,1.8,4.3,83,0.00,,,0.00,WUHU216HW,2013-05-08 11:22:00,
2013-05-08 06:27:00,62.6,57.7,29.79,South,180,1.8,3.8,84,0.00,,,0.00,WUHU216HW,2013-05-08 11:27:00,
2013-05-08 06:32:00,62.8,57.9,29.78,SSE,158,1.3,4.5,84,0.00,,,0.00,WUHU216HW,2013-05-08 11:32:00,
2013-05-08 06:37:00,63.0,57.7,29.78,South,180,4.0,4.5,83,0.00,,,0.00,WUHU216HW,2013-05-08 11:37:00,
2013-05-08 06:42:00,63.0,57.7,29.78,South,180,1.3,4.0,83,0.00,,,0.00,WUHU216HW,2013-05-08 11:42:00,
2013-05-08 06:47:00,63.0,58.1,29.78,SSE,158,1.3,6.0,84,0.00,,,0.00,WUHU216HW,2013-05-08 11:47:00,
2013-05-08 06:52:00,63.0,58.1,29.78,South,180,1.1,6.0,84,0.00,,,0.00,WUHU216HW,2013-05-08 11:52:00,
2013-05-08 06:57:00,63.2,57.9,29.79,ESE,113,4.0,4.5,83,0.00,,,0.00,WUHU216HW,2013-05-08 11:57:00,
2013-05-08 07:02:00,63.4,58.1,29.79,SSW,203,1.8,4.5,83,0.00,,,0.00,WUHU216HW,2013-05-08 12:02:00,
2013-05-08 07:07:00,63.4,58.1,29.79,SSW,203,0.9,3.1,83,0.00,,,0.00,WUHU216HW,2013-05-08 12:07:00,
2013-05-08 07:12:00,63.5,58.2,29.79,SSE,158,1.6,3.1,83,0.00,,,0.00,WUHU216HW,2013-05-08 12:12:00,
2013-05-08 07:17:00,63.7,58.4,29.79,South,180,2.9,2.9,83,0.00,,,0.00,WUHU216HW,2013-05-08 12:17:00,
2013-05-08 07:22:00,63.7,58.4,29.79,SSW,203,1.1,2.9,83,0.00,,,0.00,WUHU216HW,2013-05-08 12:22:00,
2013-05-08 07:27:00,64.1,58.8,29.79,SSW,203,2.5,2.7,83,0.00,,,0.00,WUHU216HW,2013-05-08 12:27:00,
2013-05-08 07:32:00,64.3,59.0,29.79,SW,225,0.9,4.7,83,0.00,,,0.00,WUHU216HW,2013-05-08 12:32:00,
2013-05-08 07:37:00,64.4,58.9,29.79,South,180,4.0,4.7,82,0.00,,,0.00,WUHU216HW,2013-05-08 12:37:00,
2013-05-08 07:42:00,64.4,58.9,29.79,South,180,1.3,4.0,82,0.00,,,0.00,WUHU216HW,2013-05-08 12:42:00,
2013-05-08 07:47:00,64.8,59.5,29.79,SW,225,1.6,4.7,83,0.00,,,0.00,WUHU216HW,2013-05-08 12:47:00,
2013-05-08 07:52:00,64.8,59.5,29.79,South,180,2.5,4.7,83,0.00,,,0.00,WUHU216HW,2013-05-08 12:52:00,
2013-05-08 07:57:00,65.0,59.3,29.79,SSE,158,1.6,3.8,82,0.00,,,0.00,WUHU216HW,2013-05-08 12:57:00,
2013-05-08 08:02:00,65.2,59.5,29.80,South,180,3.6,4.3,82,0.00,,,0.00,WUHU216HW,2013-05-08 13:02:00,
2013-05-08 08:07:00,65.2,59.5,29.80,SW,225,4.5,4.5,82,0.00,,,0.00,WUHU216HW,2013-05-08 13:07:00,
2013-05-08 08:12:00,65.3,59.7,29.80,SW,225,6.9,6.9,82,0.00,,,0.00,WUHU216HW,2013-05-08 13:12:00,
2013-05-08 08:17:00,65.3,59.7,29.81,South,180,3.4,6.9,82,0.00,,,0.00,WUHU216HW,2013-05-08 13:17:00,
2013-05-08 08:22:00,65.3,59.7,29.80,SE,135,2.9,4.7,82,0.00,,,0.00,WUHU216HW,2013-05-08 13:22:00,
2013-05-08 08:27:00,65.5,59.9,29.81,South,180,3.4,5.6,82,0.00,,,0.00,WUHU216HW,2013-05-08 13:27:00,
2013-05-08 08:32:00,65.5,59.9,29.81,SSE,158,5.1,5.6,82,0.00,,,0.00,WUHU216HW,2013-05-08 13:32:00,
2013-05-08 08:37:00,65.7,60.0,29.81,South,180,6.0,6.0,82,0.00,,,0.00,WUHU216HW,2013-05-08 13:37:00,
2013-05-08 08:42:00,65.7,60.0,29.81,West,270,4.5,6.0,82,0.00,,,0.00,WUHU216HW,2013-05-08 13:42:00,
2013-05-08 08:47:00,65.9,60.2,29.81,SW,225,4.0,5.6,82,0.00,,,0.00,WUHU216HW,2013-05-08 13:47:00,
2013-05-08 08:52:00,66.1,60.1,29.81,SE,135,2.9,5.6,81,0.00,,,0.00,WUHU216HW,2013-05-08 13:52:00,
2013-05-08 08:57:00,66.2,60.3,29.81,WSW,248,2.5,3.6,81,0.00,,,0.00,WUHU216HW,2013-05-08 13:57:00,
2013-05-08 09:02:00,66.2,60.3,29.82,West,270,1.8,5.8,81,0.00,,,0.00,WUHU216HW,2013-05-08 14:02:00,
2013-05-08 09:07:00,66.4,60.1,29.82,South,180,2.0,6.3,80,0.00,,,0.00,WUHU216HW,2013-05-08 14:07:00,
2013-05-08 09:12:00,66.4,60.1,29.81,SSW,203,2.5,6.9,80,0.00,,,0.00,WUHU216HW,2013-05-08 14:12:00,
2013-05-08 09:17:00,66.6,60.7,29.82,SSE,158,2.7,6.9,81,0.00,,,0.00,WUHU216HW,2013-05-08 14:17:00,
2013-05-08 09:22:00,66.6,60.7,29.82,SSE,158,5.8,5.8,81,0.00,,,0.00,WUHU216HW,2013-05-08 14:22:00,
2013-05-08 09:27:00,66.6,60.7,29.82,SSW,203,2.0,6.3,81,0.00,,,0.00,WUHU216HW,2013-05-08 14:27:00,
2013-05-08 09:32:00,66.8,60.5,29.81,SW,225,2.0,6.3,80,0.00,,,0.00,WUHU216HW,2013-05-08 14:32:00,
2013-05-08 09:37:00,67.1,60.8,29.81,SE,135,3.6,4.0,80,0.00,,,0.00,WUHU216HW,2013-05-08 14:37:00,
2013-05-08 09:42:00,67.1,60.8,29.81,SW,225,2.7,6.3,80,0.00,,,0.00,WUHU216HW,2013-05-08 14:42:00,
2013-05-08 09:47:00,67.3,61.0,29.82,SW,225,6.0,7.6,80,0.00,,,0.00,WUHU216HW,2013-05-08 14:47:00,
2013-05-08 09:52:00,67.3,61.0,29.82,South,180,1.8,7.6,80,0.00,,,0.00,WUHU216HW,2013-05-08 14:52:00,
2013-05-08 09:57:00,67.7,61.4,29.81,SW,225,2.5,6.0,80,0.00,,,0.00,WUHU216HW,2013-05-08 14:57:00,
2013-05-08 10:02:00,68.0,61.4,29.81,South,180,3.4,6.3,79,0.00,,,0.00,WUHU216HW,2013-05-08 15:02:00,
2013-05-08 10:07:00,68.2,61.1,29.81,SSE,158,2.5,6.3,78,0.00,,,0.00,WUHU216HW,2013-05-08 15:07:00,
2013-05-08 10:12:00,68.6,61.5,29.81,WSW,248,3.6,4.9,78,0.00,,,0.00,WUHU216HW,2013-05-08 15:12:00,
2013-05-08 10:17:00,69.1,61.6,29.82,SSE,158,5.4,5.4,77,0.00,,,0.00,WUHU216HW,2013-05-08 15:17:00,
2013-05-08 10:22:00,69.1,61.2,29.81,SSE,158,4.0,9.8,76,0.00,,,0.00,WUHU216HW,2013-05-08 15:22:00,
2013-05-08 10:27:00,69.1,61.2,29.82,West,270,3.4,9.8,76,0.00,,,0.00,WUHU216HW,2013-05-08 15:27:00,
2013-05-08 10:32:00,69.8,61.5,29.82,SW,225,6.3,7.4,75,0.00,,,0.00,WUHU216HW,2013-05-08 15:32:00,
2013-05-08 10:37:00,70.7,62.0,29.82,WSW,248,8.1,8.1,74,0.00,,,0.00,WUHU216HW,2013-05-08 15:37:00,
2013-05-08 10:42:00,71.8,62.3,29.82,South,180,3.1,9.4,72,0.00,,,0.00,WUHU216HW,2013-05-08 15:42:00,
2013-05-08 10:47:00,74.2,63.4,29.81,South,180,8.9,9.4,69,0.00,,,0.00,WUHU216HW,2013-05-08 15:47:00,
2013-05-08 10:52:00,75.2,63.6,29.81,SE,135,5.8,9.8,67,0.00,,,0.00,WUHU216HW,2013-05-08 15:52:00,
2013-05-08 10:57:00,75.1,62.5,29.82,SSW,203,6.3,9.8,65,0.00,,,0.00,WUHU216HW,2013-05-08 15:57:00,
2013-05-08 11:02:00,74.5,62.4,29.81,SSE,158,7.2,9.8,66,0.00,,,0.00,WUHU216HW,2013-05-08 16:02:00,
2013-05-08 11:07:00,74.7,62.6,29.81,SSE,158,10.5,10.5,66,0.00,,,0.00,WUHU216HW,2013-05-08 16:07:00,
2013-05-08 11:12:00,76.1,62.7,29.81,SE,135,8.5,10.5,63,0.00,,,0.00,WUHU216HW,2013-05-08 16:12:00,
2013-05-08 11:17:00,76.0,62.5,29.81,SSW,203,5.4,8.5,63,0.00,,,0.00,WUHU216HW,2013-05-08 16:17:00,
2013-05-08 11:22:00,77.2,63.6,29.81,ESE,113,7.6,8.5,63,0.00,,,0.00,WUHU216HW,2013-05-08 16:22:00,
2013-05-08 11:27:00,78.1,63.2,29.81,SSE,158,2.5,8.9,60,0.00,,,0.00,WUHU216HW,2013-05-08 16:27:00,
2013-05-08 11:32:00,78.3,62.8,29.81,SSW,203,2.5,8.9,59,0.00,,,0.00,WUHU216HW,2013-05-08 16:32:00,
2013-05-08 11:37:00,77.8,62.3,29.81,South,180,9.2,9.2,59,0.00,,,0.00,WUHU216HW,2013-05-08 16:37:00,
2013-05-08 11:42:00,76.7,61.7,29.81,SSW,203,2.9,9.2,60,0.00,,,0.00,WUHU216HW,2013-05-08 16:42:00,
2013-05-08 11:47:00,76.5,62.1,29.81,SE,135,5.4,10.5,61,0.00,,,0.00,WUHU216HW,2013-05-08 16:47:00,
2013-05-08 11:52:00,77.0,62.6,29.81,ENE,68,8.3,10.5,61,0.00,,,0.00,WUHU216HW,2013-05-08 16:52:00,
2013-05-08 11:57:00,77.4,61.9,29.81,South,180,3.4,8.3,59,0.00,,,0.00,WUHU216HW,2013-05-08 16:57:00,
2013-05-08 12:02:00,78.1,62.6,29.80,SE,135,7.8,8.3,59,0.00,,,0.00,WUHU216HW,2013-05-08 17:02:00,
2013-05-08 12:07:00,79.9,63.3,29.80,ESE,113,4.3,9.8,57,0.00,,,0.00,WUHU216HW,2013-05-08 17:07:00,
2013-05-08 12:12:00,80.3,63.1,29.80,ESE,113,7.6,9.8,56,0.00,,,0.00,WUHU216HW,2013-05-08 17:12:00,
2013-05-08 12:17:00,80.6,62.9,29.80,SSW,203,7.8,7.8,55,0.00,,,0.00,WUHU216HW,2013-05-08 17:17:00,
2013-05-08 12:22:00,81.5,62.6,29.80,South,180,6.0,7.8,53,0.00,,,0.00,WUHU216HW,2013-05-08 17:22:00,
2013-05-08 12:27:00,81.5,62.2,29.80,South,180,3.4,7.8,52,0.00,,,0.00,WUHU216HW,2013-05-08 17:27:00,
2013-05-08 12:32:00,81.4,63.0,29.80,SSW,203,5.6,8.7,54,0.00,,,0.00,WUHU216HW,2013-05-08 17:32:00,
2013-05-08 12:37:00,81.9,61.9,29.80,SE,135,5.4,8.7,51,0.00,,,0.00,WUHU216HW,2013-05-08 17:37:00,
2013-05-08 12:42:00,82.4,61.9,29.80,SSE,158,5.1,8.3,50,0.00,,,0.00,WUHU216HW,2013-05-08 17:42:00,
2013-05-08 12:46:00,80.6,60.9,29.80,ESE,113,6.0,7.6,51,0.00,,,0.00,WUHU216HW,2013-05-08 17:46:00,
2013-05-08 12:51:00,79.6,60.4,29.80,SSW,203,7.6,7.6,52,0.00,,,0.00,WUHU216HW,2013-05-08 17:51:00,
2013-05-08 12:56:00,79.9,61.2,29.80,SSW,203,5.4,12.1,53,0.00,,,0.00,WUHU216HW,2013-05-08 17:56:00,
2013-05-08 13:01:00,80.6,60.9,29.79,SSE,158,5.4,12.1,51,0.00,,,0.00,WUHU216HW,2013-05-08 18:01:00,
2013-05-08 13:06:00,81.5,61.1,29.80,South,180,6.9,10.1,50,0.00,,,0.00,WUHU216HW,2013-05-08 18:06:00,
2013-05-08 13:11:00,82.3,60.6,29.79,SW,225,9.6,10.1,48,0.00,,,0.00,WUHU216HW,2013-05-08 18:11:00,
2013-05-08 13:16:00,83.0,60.6,29.79,SW,225,5.6,10.7,47,0.00,,,0.00,WUHU216HW,2013-05-08 18:16:00,
2013-05-08 13:21:00,83.7,60.7,29.79,SSE,158,6.3,10.7,46,0.00,,,0.00,WUHU216HW,2013-05-08 18:21:00,
2013-05-08 13:26:00,83.7,61.3,29.79,South,180,7.6,10.3,47,0.00,,,0.00,WUHU216HW,2013-05-08 18:26:00,
2013-05-08 13:31:00,83.9,61.5,29.79,SSE,158,6.9,8.1,47,0.00,,,0.00,WUHU216HW,2013-05-08 18:31:00,
2013-05-08 13:36:00,83.7,60.7,29.78,East,90,8.5,10.5,46,0.00,,,0.00,WUHU216HW,2013-05-08 18:36:00,
2013-05-08 13:41:00,82.8,60.4,29.79,SSE,158,5.4,10.5,47,0.00,,,0.00,WUHU216HW,2013-05-08 18:41:00,
2013-05-08 13:46:00,81.4,60.3,29.79,SSE,158,6.9,10.3,49,0.00,,,0.00,WUHU216HW,2013-05-08 18:46:00,
2013-05-08 13:51:00,81.9,60.2,29.79,SSW,203,9.2,10.3,48,0.00,,,0.00,WUHU216HW,2013-05-08 18:51:00,
2013-05-08 13:56:00,82.4,60.7,29.79,South,180,8.3,9.8,48,0.00,,,0.00,WUHU216HW,2013-05-08 18:56:00,
2013-05-08 14:01:00,82.3,61.1,29.79,SSW,203,7.2,9.8,49,0.00,,,0.00,WUHU216HW,2013-05-08 19:01:00,
2013-05-08 14:06:00,82.6,61.5,29.78,SSE,158,6.3,7.8,49,0.00,,,0.00,WUHU216HW,2013-05-08 19:06:00,
2013-05-08 14:11:00,83.0,61.2,29.78,SE,135,3.6,10.3,48,0.00,,,0.00,WUHU216HW,2013-05-08 19:11:00,
2013-05-08 14:16:00,83.7,61.3,29.78,SW,225,2.7,10.3,47,0.00,,,0.00,WUHU216HW,2013-05-08 19:16:00,
2013-05-08 14:21:00,83.2,60.8,29.78,SW,225,5.8,9.2,47,0.00,,,0.00,WUHU216HW,2013-05-08 19:21:00,
2013-05-08 14:26:00,82.4,60.7,29.78,SE,135,9.2,10.1,48,0.00,,,0.00,WUHU216HW,2013-05-08 19:26:00,
2013-05-08 14:31:00,81.9,60.9,29.78,SSE,158,7.8,10.1,49,0.00,,,0.00,WUHU216HW,2013-05-08 19:31:00,
2013-05-08 14:36:00,82.3,61.7,29.78,SW,225,5.6,7.8,50,0.00,,,0.00,WUHU216HW,2013-05-08 19:36:00,
2013-05-08 14:41:00,82.4,61.3,29.78,South,180,4.9,9.8,49,0.00,,,0.00,WUHU216HW,2013-05-08 19:41:00,
2013-05-08 14:46:00,82.1,61.0,29.78,SSE,158,7.8,11.2,49,0.00,,,0.00,WUHU216HW,2013-05-08 19:46:00,
2013-05-08 14:51:00,81.7,60.7,29.78,SW,225,5.8,11.2,49,0.00,,,0.00,WUHU216HW,2013-05-08 19:51:00,
2013-05-08 14:56:00,81.5,60.5,29.78,South,180,11.4,11.9,49,0.00,,,0.00,WUHU216HW,2013-05-08 19:56:00,
2013-05-08 15:01:00,81.2,60.8,29.77,South,180,4.7,11.9,50,0.00,,,0.00,WUHU216HW,2013-05-08 20:01:00,
2013-05-08 15:06:00,81.0,60.7,29.77,SSW,203,6.7,10.3,50,0.00,,,0.00,WUHU216HW,2013-05-08 20:06:00,
2013-05-08 15:11:00,80.8,60.5,29.77,WSW,248,4.7,9.4,50,0.00,,,0.00,WUHU216HW,2013-05-08 20:11:00,
2013-05-08 15:16:00,80.5,60.7,29.77,SSW,203,8.5,9.2,51,0.00,,,0.00,WUHU216HW,2013-05-08 20:16:00,
2013-05-08 15:21:00,80.5,60.7,29.76,South,180,4.7,10.5,51,0.00,,,0.00,WUHU216HW,2013-05-08 20:21:00,
2013-05-08 15:26:00,81.5,61.7,29.76,SW,225,12.3,12.3,51,0.00,,,0.00,WUHU216HW,2013-05-08 20:26:00,
2013-05-08 15:31:00,82.1,61.6,29.76,SSE,158,5.4,12.3,50,0.00,,,0.00,WUHU216HW,2013-05-08 20:31:00,
2013-05-08 15:36:00,82.4,61.9,29.76,SSW,203,11.0,11.0,50,0.00,,,0.00,WUHU216HW,2013-05-08 20:36:00,
2013-05-08 15:41:00,82.8,61.7,29.76,WSW,248,4.5,11.0,49,0.00,,,0.00,WUHU216HW,2013-05-08 20:41:00,
2013-05-08 15:46:00,83.0,61.8,29.76,SW,225,4.9,12.1,49,0.00,,,0.00,WUHU216HW,2013-05-08 20:46:00,
2013-05-08 15:51:00,83.9,61.5,29.76,SW,225,8.3,13.9,47,0.00,,,0.00,WUHU216HW,2013-05-08 20:51:00,
2013-05-08 15:56:00,82.8,61.0,29.76,SE,135,4.0,13.9,48,0.00,,,0.00,WUHU216HW,2013-05-08 20:56:00,
2013-05-08 16:01:00,82.4,61.3,29.76,South,180,8.7,8.7,49,0.00,,,0.00,WUHU216HW,2013-05-08 21:01:00,
2013-05-08 16:06:00,82.1,61.0,29.75,South,180,8.9,8.9,49,0.00,,,0.00,WUHU216HW,2013-05-08 21:06:00,
2013-05-08 16:11:00,82.1,61.6,29.75,South,180,4.9,8.9,50,0.00,,,0.00,WUHU216HW,2013-05-08 21:11:00,
2013-05-08 16:16:00,81.7,61.3,29.75,South,180,8.5,8.5,50,0.00,,,0.00,WUHU216HW,2013-05-08 21:16:00,
2013-05-08 16:21:00,81.9,61.9,29.75,SSW,203,4.7,8.5,51,0.00,,,0.00,WUHU216HW,2013-05-08 21:21:00,
2013-05-08 16:26:00,81.7,61.8,29.74,SW,225,6.3,9.6,51,0.00,,,0.00,WUHU216HW,2013-05-08 21:26:00,
2013-05-08 16:31:00,82.1,62.1,29.74,SW,225,7.6,9.6,51,0.00,,,0.00,WUHU216HW,2013-05-08 21:31:00,
2013-05-08 16:36:00,82.4,61.9,29.74,South,180,9.4,10.5,50,0.00,,,0.00,WUHU216HW,2013-05-08 21:36:00,
2013-05-08 16:41:00,82.4,61.9,29.74,SSW,203,4.7,10.5,50,0.00,,,0.00,WUHU216HW,2013-05-08 21:41:00,
2013-05-08 16:46:00,82.6,62.1,29.73,SSE,158,4.9,6.0,50,0.00,,,0.00,WUHU216HW,2013-05-08 21:46:00,
2013-05-08 16:51:00,82.8,61.7,29.73,SE,135,3.6,10.7,49,0.00,,,0.00,WUHU216HW,2013-05-08 21:51:00,
2013-05-08 16:56:00,82.4,61.3,29.73,SSE,158,2.7,10.7,49,0.00,,,0.00,WUHU216HW,2013-05-08 21:56:00,
2013-05-08 17:01:00,82.6,62.1,29.73,SW,225,6.9,8.3,50,0.00,,,0.00,WUHU216HW,2013-05-08 22:01:00,
2013-05-08 17:06:00,83.3,61.6,29.73,SW,225,5.6,7.4,48,0.00,,,0.00,WUHU216HW,2013-05-08 22:06:00,
2013-05-08 17:11:00,83.5,61.7,29.73,SW,225,6.9,8.3,48,0.00,,,0.00,WUHU216HW,2013-05-08 22:11:00,
2013-05-08 17:16:00,83.5,61.1,29.73,SSE,158,6.3,9.8,47,0.00,,,0.00,WUHU216HW,2013-05-08 22:16:00,
2013-05-08 17:21:00,82.6,60.8,29.73,South,180,6.3,9.8,48,0.00,,,0.00,WUHU216HW,2013-05-08 22:21:00,
2013-05-08 17:26:00,81.5,60.5,29.73,SSE,158,6.3,10.5,49,0.00,,,0.00,WUHU216HW,2013-05-08 22:26:00,
2013-05-08 17:31:00,81.2,60.8,29.73,SSW,203,4.0,10.5,50,0.00,,,0.00,WUHU216HW,2013-05-08 22:31:00,
2013-05-08 17:36:00,81.5,61.1,29.73,SSE,158,5.4,8.9,50,0.00,,,0.00,WUHU216HW,2013-05-08 22:36:00,
2013-05-08 17:41:00,81.9,60.9,29.73,South,180,10.1,10.1,49,0.00,,,0.00,WUHU216HW,2013-05-08 22:41:00,
2013-05-08 17:46:00,81.2,60.8,29.73,SSW,203,5.1,10.1,50,0.00,,,0.00,WUHU216HW,2013-05-08 22:46:00,
2013-05-08 17:51:00,81.0,61.1,29.73,South,180,5.1,6.7,51,0.00,,,0.00,WUHU216HW,2013-05-08 22:51:00,
2013-05-08 17:56:00,81.2,61.3,29.73,South,180,4.7,8.9,51,0.00,,,0.00,WUHU216HW,2013-05-08 22:56:00,
2013-05-08 18:01:00,81.4,60.9,29.73,South,180,3.6,9.2,50,0.00,,,0.00,WUHU216HW,2013-05-08 23:01:00,
2013-05-08 18:06:00,81.4,60.9,29.72,SSW,203,1.8,9.2,50,0.00,,,0.00,WUHU216HW,2013-05-08 23:06:00,
2013-05-08 18:11:00,81.4,60.9,29.73,South,180,3.4,7.6,50,0.00,,,0.00,WUHU216HW,2013-05-08 23:11:00,
2013-05-08 18:16:00,81.5,61.1,29.73,South,180,2.0,7.6,50,0.00,,,0.00,WUHU216HW,2013-05-08 23:16:00,
2013-05-08 18:21:00,81.4,60.9,29.72,SW,225,3.4,6.9,50,0.00,,,0.00,WUHU216HW,2013-05-08 23:21:00,
2013-05-08 18:26:00,81.4,60.9,29.71,South,180,6.9,6.9,50,0.00,,,0.00,WUHU216HW,2013-05-08 23:26:00,
2013-05-08 18:31:00,81.0,61.1,29.71,SSE,158,2.5,7.2,51,0.00,,,0.00,WUHU216HW,2013-05-08 23:31:00,
2013-05-08 18:36:00,80.8,61.0,29.71,ESE,113,2.5,7.2,51,0.00,,,0.00,WUHU216HW,2013-05-08 23:36:00,
2013-05-08 18:41:00,80.8,61.0,29.71,SSE,158,3.4,7.6,51,0.00,,,0.00,WUHU216HW,2013-05-08 23:41:00,
2013-05-08 18:46:00,80.5,60.7,29.71,SSE,158,12.8,12.8,51,0.00,,,0.00,WUHU216HW,2013-05-08 23:46:00,
2013-05-08 18:51:00,79.9,60.7,29.70,SSE,158,4.9,12.8,52,0.00,,,0.00,WUHU216HW,2013-05-08 23:51:00,
2013-05-08 18:56:00,79.9,60.7,29.70,SE,135,9.2,9.2,52,0.00,,,0.00,WUHU216HW,2013-05-08 23:56:00,
2013-05-08 19:01:00,79.9,60.7,29.70,South,180,7.2,9.2,52,0.00,,,0.00,WUHU216HW,2013-05-09 00:01:00,
2013-05-08 19:06:00,79.6,60.4,29.70,South,180,5.1,7.2,52,0.00,,,0.00,WUHU216HW,2013-05-09 00:06:00,
2013-05-08 19:11:00,79.2,60.6,29.70,SSE,158,2.2,9.2,53,0.00,,,0.00,WUHU216HW,2013-05-09 00:11:00,
2013-05-08 19:16:00,79.0,60.4,29.70,SSE,158,4.9,9.2,53,0.00,,,0.00,WUHU216HW,2013-05-09 00:16:00,
2013-05-08 19:21:00,78.8,60.2,29.69,SE,135,3.1,8.1,53,0.00,,,0.00,WUHU216HW,2013-05-09 00:21:00,
2013-05-08 19:26:00,78.8,60.8,29.69,ESE,113,6.9,6.9,54,0.00,,,0.00,WUHU216HW,2013-05-09 00:26:00,
2013-05-08 19:31:00,78.5,60.4,29.69,ESE,113,2.7,7.2,54,0.00,,,0.00,WUHU216HW,2013-05-09 00:31:00,
2013-05-08 19:36:00,78.5,60.4,29.69,SSW,203,2.5,7.2,54,0.00,,,0.00,WUHU216HW,2013-05-09 00:36:00,
2013-05-08 19:41:00,78.3,60.8,29.69,SSE,158,2.9,7.2,55,0.00,,,0.00,WUHU216HW,2013-05-09 00:41:00,
2013-05-08 19:46:00,77.9,60.5,29.69,South,180,3.6,6.3,55,0.00,,,0.00,WUHU216HW,2013-05-09 00:46:00,
2013-05-08 19:51:00,77.8,60.3,29.69,South,180,2.5,6.3,55,0.00,,,0.00,WUHU216HW,2013-05-09 00:51:00,
2013-05-08 19:56:00,77.6,60.1,29.69,South,180,2.9,6.0,55,0.00,,,0.00,WUHU216HW,2013-05-09 00:56:00,
2013-05-08 20:01:00,77.4,60.0,29.69,SSE,158,2.5,4.3,55,0.00,,,0.00,WUHU216HW,2013-05-09 01:01:00,
2013-05-08 20:06:00,77.2,60.3,29.70,South,180,4.0,4.7,56,0.00,,,0.00,WUHU216HW,2013-05-09 01:06:00,
2013-05-08 20:11:00,76.9,60.0,29.70,SE,135,2.2,4.7,56,0.00,,,0.00,WUHU216HW,2013-05-09 01:11:00,
2013-05-08 20:16:00,76.7,60.3,29.70,SSE,158,4.3,4.3,57,0.00,,,0.00,WUHU216HW,2013-05-09 01:16:00,
2013-05-08 20:21:00,76.3,59.9,29.70,SE,135,1.6,4.3,57,0.00,,,0.00,WUHU216HW,2013-05-09 01:21:00,
2013-05-08 20:26:00,76.0,59.6,29.70,SSE,158,2.5,2.5,57,0.00,,,0.00,WUHU216HW,2013-05-09 01:26:00,
2013-05-08 20:31:00,75.6,59.8,29.71,SSE,158,2.7,3.4,58,0.00,,,0.00,WUHU216HW,2013-05-09 01:31:00,
2013-05-08 20:36:00,75.4,60.1,29.71,SE,135,1.8,3.4,59,0.00,,,0.00,WUHU216HW,2013-05-09 01:36:00,
2013-05-08 20:41:00,75.2,60.5,29.71,SE,135,1.1,3.8,60,0.00,,,0.00,WUHU216HW,2013-05-09 01:41:00,
2013-05-08 20:46:00,75.1,60.3,29.71,SSE,158,1.3,4.0,60,0.00,,,0.00,WUHU216HW,2013-05-09 01:46:00,
2013-05-08 20:51:00,74.9,60.6,29.71,SE,135,1.1,4.0,61,0.00,,,0.00,WUHU216HW,2013-05-09 01:51:00,
2013-05-08 20:56:00,74.7,60.4,29.71,SE,135,1.8,3.6,61,0.00,,,0.00,WUHU216HW,2013-05-09 01:56:00,
2013-05-08 21:01:00,74.5,60.2,29.72,SE,135,3.1,3.1,61,0.00,,,0.00,WUHU216HW,2013-05-09 02:01:00,
2013-05-08 21:06:00,74.2,59.9,29.73,SE,135,1.3,3.1,61,0.00,,,0.00,WUHU216HW,2013-05-09 02:06:00,
2013-05-08 21:11:00,74.0,59.7,29.73,SSE,158,2.5,2.5,61,0.00,,,0.00,WUHU216HW,2013-05-09 02:11:00,
2013-05-08 21:16:00,73.8,60.0,29.72,ESE,113,2.0,2.5,62,0.00,,,0.00,WUHU216HW,2013-05-09 02:16:00,
2013-05-08 21:21:00,73.4,59.6,29.73,SE,135,0.4,2.5,62,0.00,,,0.00,WUHU216HW,2013-05-09 02:21:00,
2013-05-08 21:26:00,73.3,59.4,29.73,SSE,158,1.1,2.0,62,0.00,,,0.00,WUHU216HW,2013-05-09 02:26:00,
2013-05-08 21:31:00,73.1,59.2,29.73,SSE,158,3.4,3.4,62,0.00,,,0.00,WUHU216HW,2013-05-09 02:31:00,
2013-05-08 21:36:00,72.9,59.0,29.73,SE,135,1.8,3.4,62,0.00,,,0.00,WUHU216HW,2013-05-09 02:36:00,
2013-05-08 21:41:00,72.7,58.5,29.73,SE,135,0.9,2.2,61,0.00,,,0.00,WUHU216HW,2013-05-09 02:41:00,
2013-05-08 21:46:00,72.4,57.7,29.73,SE,135,1.1,6.0,60,0.00,,,0.00,WUHU216HW,2013-05-09 02:46:00,
2013-05-08 21:51:00,72.5,57.3,29.74,SE,135,5.4,7.2,59,0.00,,,0.00,WUHU216HW,2013-05-09 02:51:00,
2013-05-08 21:56:00,72.5,56.9,29.74,South,180,1.8,7.2,58,0.00,,,0.00,WUHU216HW,2013-05-09 02:56:00,
2013-05-08 22:01:00,72.5,57.3,29.75,SSE,158,2.9,5.8,59,0.00,,,0.00,WUHU216HW,2013-05-09 03:01:00,
2013-05-08 22:06:00,72.4,57.3,29.74,SE,135,4.7,5.8,59,0.00,,,0.00,WUHU216HW,2013-05-09 03:06:00,
2013-05-08 22:11:00,72.5,57.9,29.74,South,180,4.7,8.3,60,0.00,,,0.00,WUHU216HW,2013-05-09 03:11:00,
2013-05-08 22:16:00,72.4,59.1,29.75,South,180,4.9,8.9,63,0.00,,,0.00,WUHU216HW,2013-05-09 03:16:00,
2013-05-08 22:21:00,72.2,59.3,29.75,SSW,203,8.5,10.1,64,0.00,,,0.00,WUHU216HW,2013-05-09 03:21:00,
2013-05-08 22:26:00,72.0,59.6,29.75,SW,225,5.4,10.1,65,0.00,,,0.00,WUHU216HW,2013-05-09 03:26:00,
2013-05-08 22:31:00,71.8,59.9,29.75,SSW,203,11.9,15.7,66,0.00,,,0.00,WUHU216HW,2013-05-09 03:31:00,
2013-05-08 22:36:00,71.6,59.7,29.75,South,180,8.9,15.7,66,0.00,,,0.00,WUHU216HW,2013-05-09 03:36:00,
2013-05-08 22:41:00,71.3,59.3,29.75,SE,135,5.1,9.2,66,0.00,,,0.00,WUHU216HW,2013-05-09 03:41:00,
2013-05-08 22:46:00,70.9,59.9,29.76,South,180,10.7,10.7,68,0.00,,,0.00,WUHU216HW,2013-05-09 03:46:00,
2013-05-08 22:51:00,70.7,59.7,29.76,ENE,68,5.6,10.7,68,0.00,,,0.00,WUHU216HW,2013-05-09 03:51:00,
2013-05-08 22:56:00,70.6,60.3,29.76,SSE,158,4.7,10.5,70,0.00,,,0.00,WUHU216HW,2013-05-09 03:56:00,
2013-05-08 23:01:00,70.4,60.1,29.76,SSE,158,6.9,15.7,70,0.00,,,0.00,WUHU216HW,2013-05-09 04:01:00,
2013-05-08 23:06:00,70.2,59.9,29.76,SSE,158,5.6,15.7,70,0.00,,,0.00,WUHU216HW,2013-05-09 04:06:00,
2013-05-08 23:11:00,69.8,59.9,29.76,SSW,203,2.5,9.8,71,0.00,,,0.00,WUHU216HW,2013-05-09 04:11:00,
2013-05-08 23:16:00,69.7,60.2,29.76,South,180,2.5,9.8,72,0.00,,,0.00,WUHU216HW,2013-05-09 04:16:00,
2013-05-08 23:21:00,69.5,60.0,29.76,South,180,4.5,9.2,72,0.00,,,0.00,WUHU216HW,2013-05-09 04:21:00,
2013-05-08 23:26:00,69.3,60.2,29.76,SSW,203,5.8,9.2,73,0.00,,,0.00,WUHU216HW,2013-05-09 04:26:00,
2013-05-08 23:31:00,69.1,60.0,29.76,ESE,113,7.2,9.2,73,0.00,,,0.00,WUHU216HW,2013-05-09 04:31:00,
2013-05-08 23:36:00,68.9,60.3,29.76,SSW,203,6.9,7.6,74,0.00,,,0.00,WUHU216HW,2013-05-09 04:36:00,
2013-05-08 23:41:00,68.8,60.1,29.76,SSE,158,2.5,7.6,74,0.00,,,0.00,WUHU216HW,2013-05-09 04:41:00,
2013-05-08 23:46:00,68.8,60.5,29.77,South,180,4.9,7.6,75,0.00,,,0.00,WUHU216HW,2013-05-09 04:46:00,
2013-05-08 23:51:00,68.4,60.6,29.76,SSW,203,4.9,9.6,76,0.00,,,0.00,WUHU216HW,2013-05-09 04:51:00,
2013-05-08 23:56:00,68.4,60.6,29.76,SSW,203,6.7,9.6,76,0.00,,,0.00,WUHU216HW,2013-05-09 04:56:00,